Location: Stockholm
(59.3330°N, 18.0500°E)
Time: 00:42:22
(UTC+01:00)

ISS - Visible Passes

Search period start: 29 November 2023 00:00
Search period end: 09 December 2023 00:00
Orbit: 416 x 418 km, 51.6° (Epoch: 28 November)

Date Brightness Start Highest point End Pass type
(mag) Time Alt. Az. Time Alt. Az. Time Alt. Az.
29 Nov -1.6 16:42:10 10° SW 16:44:52 22° S 16:47:32 10° SE visible
29 Nov -1.1 18:18:54 10° WSW 18:20:50 15° SSW 18:21:00 15° SSW visible
30 Nov -1.5 15:54:01 10° SW 15:56:42 22° S 15:59:23 10° SE visible
30 Nov -1.2 17:30:25 10° WSW 17:32:43 17° SSW 17:34:46 11° SSE visible
01 Dec -1.3 16:42:02 10° WSW 16:44:32 19° SSW 16:47:02 10° SE visible
02 Dec -1.3 15:53:41 10° WSW 15:56:18 21° S 15:58:55 10° SE visible
02 Dec -0.8 17:30:48 10° SW 17:32:12 12° SSW 17:33:36 10° S visible
03 Dec -0.9 16:42:00 10° WSW 16:44:00 15° SSW 16:45:58 10° SSE visible
04 Dec -0.9 15:53:22 10° WSW 15:55:42 18° SSW 15:58:01 10° SSE visible
06 Dec -0.5 15:53:20 10° SW 15:54:51 13° SSW 15:56:21 10° S visible
